Flag for Switzerland Weather past 2 weeks in Schaffhausen, Schaffhausen, Switzerland

Now
60 °F

Cool.


Feels Like: 60 °F
Forecast: 41 / 67 °F
Wind: 8 mph from North

Location: Zurich-Kloten

Current Time: Sep 1, 2014 at 4:42:16 PM

Latest Report: Sep 1, 2014 at 4:00 PM


Visibility: N/A

Pressure: 30.14 "Hg

Humidity: 65%

Dew point: 48 °F

Location of SchaffhausenLocation

Historic Weather in Schaffhausen — Graph

°F

Schaffhausen temperature yesterday

Maximum temperature yesterday: 64 °F (at 11:00 AM)
Minimum temperature yesterday: 54 °F (at 9:00 PM)
Average temperature yesterday: 58 °F

Past Weeks' High & Low Weather Summary

 TemperatureHumidityPressure
High74 °F (Aug 28, 6:00 PM)98% (Aug 19, 4:00 AM)30.20 "Hg (Aug 19, 4:00 AM)
Low44 °F (Aug 25, 3:00 AM)40% (Aug 17, 4:00 PM)29.76 "Hg (Aug 26, 7:00 PM)
Average60 °F77%30.01 "Hg
* Reported Aug 17 3:00 PM — Sep 1 3:00 PM, Schaffhausen, Weather by CustomWeather, © 2014

Note: Actual official high and low records may vary slightly from our data, if they occured in-between our weather recording intervals... More about our weather records

Advertising

Schaffhausen weather history for previous 24 hours

 ConditionsComfort  
Time TempWeatherWind HumidityBarometerVisibility
3:00 PM
Sep 1
61 °FRefreshingly cool.6 mph59%30.13 "HgN/A
2:00 PM61 °FScattered clouds.3 mph57%30.12 "Hg19 mi
1:00 PM62 °FMild.7 mph55%30.11 "HgN/A
12:00 PM62 °FCool.6 mph63%30.12 "HgN/A
11:00 AM60 °FScattered clouds.8 mph70%30.12 "Hg12 mi
10:00 AM57 °FCool.5 mph81%30.13 "HgN/A
9:00 AM54 °FCool.3 mph94%30.13 "HgN/A
8:00 AM53 °FLow clouds.3 mph94%30.12 "Hg9 mi
7:00 AM52 °FCool.3 mph97%30.11 "HgN/A
6:00 AM52 °FCool.1 mph96%30.09 "HgN/A
5:00 AM52 °FSprinkles. Low clouds.5 mph95%30.08 "Hg7 mi
4:00 AM54 °FCool.5 mph91%30.07 "HgN/A
3:00 AM54 °FCool.2 mph91%30.07 "HgN/A
2:00 AM53 °FRain showers. Low clouds.2 mph97%30.06 "Hg4 mi
1:00 AM54 °FCool.2 mph94%30.06 "HgN/A
12:00 AM54 °FCool.1 mph92%30.06 "HgN/A
10:00 PM
Aug 31
54 °FCool.3 mph93%30.08 "HgN/A
9:00 PM54 °FCool.3 mph93%30.07 "HgN/A
8:00 PM55 °FOvercast.5 mph90%30.06 "Hg16 mi
7:00 PM55 °FCool.3 mph94%30.04 "HgN/A
6:00 PM55 °FCool.2 mph94%30.04 "HgN/A
5:00 PM55 °FRain. Overcast.2 mph91%30.03 "Hg6 mi
4:00 PM56 °FCool.3 mph88%30.03 "HgN/A
Weather by CustomWeather, © 2014

See weather overviewHow to use our weather pages